Location: Unspecified
(49.2170°N, 0.0000°E)
Time: 18:20:19
(UTC+00:00)

A-11 Canister half - Pass Details

Date: 22 January 2021
Orbit: 1516 x 1684 km, 47.2° (Epoch: 05 March)

Event Time Altitude Azimuth Distance (km) Brightness Sun altitude
Rises 21:44:15 0° 241° (WSW) 4,722 11.8 -48.2°
Reaches altitude 10° 21:47:22 10° 239° (WSW) 3,722 11.2 -48.6°
Enters shadow 21:48:58 17° 237° (WSW) 3,218 10.8 -48.8°
